Regional Weather Roundup
Issued by NWS

Home | Current Version | Previous Version | Text Only | Print | Product List | Glossary On
Versions: 1 2 3 4 5 6 7 8 9 10 11 12 13 14 15 16 17 18 19 20 21 22 23 24 25 26 27 28 29 30 31 32 33 34 35 36 37 38 39 40 41 42 43 44 45 46 47 48 49 50
000
ASUS43 KFSD 151202
RWRSD

WEATHER ROUNDUP FOR SOUTH DAKOTA
NATIONAL WEATHER SERVICE SIOUX FALLS SD
600 AM CST FRI DEC 15 2017

NOTE: "FAIR" INDICATES FEW OR NO CLOUDS BELOW 12,000 FEET WITH NO
SIGNIFICANT WEATHER AND/OR OBSTRUCTIONS TO VISIBILITY.


SDZ001>005-009-010-012>017-151300-
NORTHWEST AND NORTH CENTRAL SOUTH DAKOTA

CITY           SKY/WX    TMP DP  RH WIND       PRES   REMARKS
BUFFALO          N/A     29  22  75 SW12      29.75F WCI  19
FAITH            N/A     26  22  84 SW10      29.86F WCI  16
MOBRIDGE       CLOUDY    27  22  81 CALM      29.85F
$$

SDZ012>016-024>037-041>051-057-063-072>074-151300-
SOUTHWEST AND SOUTH CENTRAL SOUTH DAKOTA

CITY           SKY/WX    TMP DP  RH WIND       PRES   REMARKS
RAPID CTY ARPT CLOUDY    20  10  65 W3        29.87F
PIERRE         PTCLDY    26  22  84 SW8       29.90F WCI  18
CUSTER         CLOUDY    30   8  39 SW7       29.88F WCI  23
ELLSWORTH AFB  CLOUDY    22  12  65 W7        29.85F WCI  13
PHILIP         CLOUDY    23  19  85 W10       29.91F WCI  12
PINE RIDGE     CLOUDY    23  18  81 SW8       29.94F WCI  14
SPEARFISH      FAIR      39  14  35 W18       29.84F
WINNER         FAIR      29  21  72 SW9       29.94F WCI  20
$$

SDZ004>011-016>023-039-040-151300-
NORTHEAST SOUTH DAKOTA

CITY           SKY/WX    TMP DP  RH WIND       PRES   REMARKS
ABERDEEN       CLOUDY    30  26  85 W6        29.88F WCI  24
WATERTOWN      CLOUDY    29  27  92 W5        29.86F WCI  24
BROOKINGS      CLOUDY    30  26  85 W12       29.89F WCI  20
SISSETON         N/A     24  22  91 NE6       29.90F WCI  17
$$

SDZ017-020-022-023-036>040-048>070-151300-
SOUTHEAST SOUTH DAKOTA

CITY           SKY/WX    TMP DP  RH WIND       PRES   REMARKS
SIOUX FALLS    CLOUDY    33  28  81 W7        29.93F WCI  27
HURON          CLOUDY    31  26  82 W10       29.91F WCI  22
CHAMBERLAIN    PTCLDY    30  26  86 SW6       29.94S WCI  24
MITCHELL       MOCLDY    30  25  81 W13       29.95F WCI  20
YANKTON        CLOUDY    32  26  78 SW13      29.98F WCI  22
$$

ABBREVIATIONS USED IN REMARKS
   TC - TEMPERATURE IN CELSIUS
  WCI - WIND CHILL INDEX
   HX - HEAT INDEX
  VSB - VISIBILITY





USA.gov is the U.S. government's official web portal to all federal, state and local government web resources and services.